Overview Statistics Trail Chart Weather Telemetry Raw packets
 

This is the latest recevied weather packets stored in our database for station/object DL5DI-H. If no packets are shown the sender has not sent any weather packets the latest 10 day(s).

<< 6 7 8 9 10 11 12 >>
Time Temp. Humidity Pressure Rain* Wind** Luminosity Snow
1788591600 16.67° C 89% 1021.8 hPa 0 mm - - -
1788591001 16.11° C 89% 1021.9 hPa 0 mm - - -
1788590401 16.11° C 89% 1021.9 hPa 0 mm - - -
1788589802 15.56° C 89% 1021.8 hPa 0 mm - - -
1788589200 15.56° C 89% 1021.5 hPa 0 mm - - -
1788588602 15.56° C 89% 1021.5 hPa 0 mm - - -
1788588002 15° C 89% 1021.4 hPa 0 mm - - -
1788587402 15° C 88% 1021 hPa 0 mm - - -
1788586800 15° C 88% 1021 hPa 0 mm - - -
1788586202 15° C 88% 1020.8 hPa 0 mm - - -
1788585602 15° C 88% 1020.5 hPa 0 mm - - -
1788585002 15° C 88% 1020.5 hPa 0 mm - - -
1788584400 15° C 88% 1020.4 hPa 0 mm - - -
1788583800 15° C 87% 1019.9 hPa 0 mm - - -
1788583200 15° C 87% 1019.9 hPa 0 mm - - -
1788582600 15.56° C 87% 1019.8 hPa 0 mm - - -
1788582000 15.56° C 87% 1019.7 hPa 0 mm - - -
1788581402 15.56° C 87% 1019.7 hPa 0 mm - - -
1788580802 16.11° C 87% 1019.6 hPa 0 mm - - -
1788580202 16.11° C 86% 1019.7 hPa 0 mm - - -
1788579602 16.11° C 86% 1019.7 hPa 0 mm - - -
1788579002 16.67° C 86% 1019.7 hPa 0 mm - - -
1788578401 16.67° C 86% 1019.6 hPa 0 mm - - -
1788577802 16.67° C 85% 1019.5 hPa 0 mm - - -
1788577202 16.67° C 85% 1019.4 hPa 0 mm - - -

* Rain latest hour (hover to see other rain measurements)
** Current wind speed in m/s (hover to see current wind gust speed)